NDF57EL EDDH-ENCN

Flight info

Callsign NDF57EL
Flight time 0h 56m
Altitude 37000
Route SOKWO1B SOKWO T814 EXNEL M105 AMRAK DCT AMSEV AMSEV2L
Aircraft CRJ9/M-SDFGIRWY/S

Departure

Time 2026-05-04 10:00
Airport Hamburg Helmut Schmidt Airport (EDDH)

Arrival

Time 2026-05-04 10:56
Airport Kristiansand Airport (ENCN)
Time Latitude Longitude Altitude Speed Heading
2026-05-04 09:20 53.63144 10.00045 48 ft 0 kts 140°
2026-05-04 09:51 53.63159 10.00026 45 ft 4 kts 149°
2026-05-04 09:52 53.63183 10.00010 46 ft 4 kts 173°
2026-05-04 09:52 53.63206 10.00018 47 ft 4 kts 217°
2026-05-04 09:52 53.63212 10.00027 44 ft 0 kts 230°
2026-05-04 09:55 53.63201 10.00004 48 ft 1 kts 230°
2026-05-04 09:55 53.63167 9.99937 49 ft 5 kts 230°
2026-05-04 09:55 53.63158 9.99919 49 ft 2 kts 230°
2026-05-04 09:56 53.63149 9.99900 49 ft 1 kts 229°
2026-05-04 09:56 53.63095 9.99876 46 ft 11 kts 163°
2026-05-04 09:56 53.63024 9.99935 49 ft 12 kts 152°
2026-05-04 09:56 53.62953 9.99993 46 ft 11 kts 172°
2026-05-04 09:57 53.62899 9.99933 50 ft 10 kts 243°
2026-05-04 09:57 53.62895 9.99918 50 ft 0 kts 246°
2026-05-04 09:57 53.62884 9.99879 49 ft 10 kts 246°
2026-05-04 09:58 53.62868 9.99761 51 ft 10 kts 293°
2026-05-04 09:58 53.62902 9.99711 51 ft 0 kts 336°
2026-05-04 10:00 53.66472 9.96906 2040 ft 157 kts 343°
2026-05-04 10:00 53.67521 9.96754 2782 ft 155 kts 358°
2026-05-04 10:02 53.75770 10.03933 7633 ft 223 kts 330°
2026-05-04 10:04 53.67213 9.94181 10136 ft 376 kts 190°
2026-05-04 10:04 53.64764 9.92860 10224 ft 371 kts 213°
2026-05-04 10:04 53.62931 9.89926 10503 ft 360 kts 239°
2026-05-04 10:04 53.62100 9.86113 11318 ft 340 kts 263°
2026-05-04 10:05 53.62356 9.82256 12037 ft 331 kts 288°
2026-05-04 10:05 53.63610 9.79053 12504 ft 334 kts 314°
2026-05-04 10:05 53.65616 9.77094 12775 ft 347 kts 339°
2026-05-04 10:05 53.68046 9.76769 13043 ft 360 kts
2026-05-04 10:06 53.70416 9.78225 13309 ft 371 kts 30°
2026-05-04 10:06 53.72268 9.81161 13562 ft 378 kts 52°
2026-05-04 10:06 53.73721 9.84641 13816 ft 380 kts 53°
2026-05-04 10:08 53.86986 9.97071 15201 ft 374 kts
2026-05-04 10:08 53.89572 9.97579 15429 ft 375 kts
2026-05-04 10:08 53.92167 9.98087 15656 ft 377 kts
2026-05-04 10:08 53.94647 9.98637 15871 ft 378 kts
2026-05-04 10:09 53.97258 9.99289 16085 ft 380 kts
2026-05-04 10:09 53.99880 9.99947 16299 ft 382 kts
2026-05-04 10:09 54.02515 10.00610 16512 ft 383 kts
2026-05-04 10:09 54.05160 10.01278 16719 ft 385 kts
2026-05-04 10:10 54.07700 10.01930 16919 ft 385 kts
2026-05-04 10:10 54.10298 10.01868 17117 ft 374 kts 341°
2026-05-04 10:10 54.12521 10.00140 17297 ft 361 kts 319°
2026-05-04 10:10 54.14359 9.97466 17485 ft 356 kts 309°
2026-05-04 10:11 54.15993 9.94399 17683 ft 355 kts 306°
2026-05-04 10:11 54.17583 9.91169 17866 ft 356 kts 305°
2026-05-04 10:11 54.19168 9.87913 18055 ft 357 kts 304°
2026-05-04 10:11 54.20745 9.84627 18245 ft 358 kts 304°
2026-05-04 10:12 54.22316 9.81329 18410 ft 358 kts 304°
2026-05-04 10:12 54.23899 9.78028 18566 ft 360 kts 306°
2026-05-04 10:12 54.25811 9.75276 18701 ft 370 kts 321°
2026-05-04 10:12 54.28014 9.72974 18856 ft 372 kts 323°
2026-05-04 10:13 54.30223 9.70648 18997 ft 372 kts 321°
2026-05-04 10:13 54.32364 9.68180 19138 ft 371 kts 319°
2026-05-04 10:13 54.34316 9.65795 19265 ft 373 kts 321°
2026-05-04 10:13 54.36637 9.64110 19366 ft 388 kts 342°
2026-05-04 10:14 54.39336 9.63537 19550 ft 394 kts 353°
2026-05-04 10:14 54.42070 9.63314 19640 ft 390 kts 343°
2026-05-04 10:16 54.50307 9.39651 20597 ft 368 kts 318°
2026-05-04 10:16 54.52591 9.37754 20841 ft 365 kts 339°
2026-05-04 10:16 54.55094 9.37362 20855 ft 368 kts 360°
2026-05-04 10:16 54.57468 9.38439 20854 ft 377 kts 20°
2026-05-04 10:17 54.59613 9.40952 20858 ft 372 kts 43°
2026-05-04 10:17 54.61120 9.44495 20869 ft 363 kts 62°
2026-05-04 10:19 54.72321 9.63769 20865 ft 352 kts 27°
2026-05-04 10:19 54.74449 9.66103 20921 ft 371 kts 28°
2026-05-04 10:19 54.76470 9.68328 20979 ft 388 kts 28°
2026-05-04 10:19 54.78796 9.70885 21039 ft 405 kts 28°
2026-05-04 10:20 54.81324 9.73144 21066 ft 412 kts 12°
2026-05-04 10:20 54.84136 9.73864 21440 ft 408 kts 357°
2026-05-04 10:20 54.86966 9.73820 21897 ft 406 kts 349°
2026-05-04 10:20 54.89741 9.73113 22430 ft 403 kts 343°
2026-05-04 10:21 54.92491 9.72122 22895 ft 405 kts 341°
2026-05-04 10:21 54.95223 9.71120 23337 ft 408 kts 342°
2026-05-04 10:21 54.97928 9.70141 23729 ft 411 kts 342°
2026-05-04 10:21 55.00733 9.69125 24105 ft 413 kts 342°
2026-05-04 10:22 55.06269 9.67129 24819 ft 417 kts 342°
2026-05-04 10:22 55.09023 9.66158 25146 ft 420 kts 344°
2026-05-04 10:22 55.11941 9.65491 25477 ft 425 kts 347°
2026-05-04 10:23 55.14883 9.64888 25842 ft 426 kts 346°
2026-05-04 10:23 55.17684 9.64178 26174 ft 425 kts 344°
2026-05-04 10:25 55.38167 9.57673 28191 ft 437 kts 343°
2026-05-04 10:25 55.41167 9.56714 28491 ft 439 kts 343°
2026-05-04 10:25 55.44174 9.55752 28760 ft 440 kts 344°
2026-05-04 10:25 55.47149 9.54809 29000 ft 441 kts 344°
2026-05-04 10:26 55.50179 9.53847 29234 ft 443 kts 344°
2026-05-04 10:26 55.53218 9.52874 29461 ft 444 kts 344°
2026-05-04 10:26 55.56160 9.51937 29672 ft 446 kts 344°
2026-05-04 10:26 55.58855 9.51062 29835 ft 448 kts 344°
2026-05-04 10:27 55.61934 9.50071 29913 ft 452 kts 344°
2026-05-04 10:27 55.68149 9.48080 29948 ft 462 kts 344°
2026-05-04 10:28 55.74535 9.46019 29960 ft 471 kts 344°
2026-05-04 10:28 55.80803 9.43994 29951 ft 466 kts 344°
2026-05-04 10:29 55.87204 9.41907 29947 ft 468 kts 344°
2026-05-04 10:29 55.93623 9.39813 29951 ft 470 kts 344°
2026-05-04 10:30 55.99859 9.37776 29957 ft 471 kts 345°
2026-05-04 10:30 56.06302 9.35663 29980 ft 461 kts 345°
2026-05-04 10:31 56.12544 9.33548 30089 ft 458 kts 343°
2026-05-04 10:32 56.34283 9.26248 29944 ft 466 kts 345°
2026-05-04 10:33 56.40516 9.24164 29939 ft 466 kts 345°
2026-05-04 10:33 56.46883 9.22038 29940 ft 465 kts 346°
2026-05-04 10:34 56.53184 9.19914 29945 ft 456 kts 346°
2026-05-04 10:34 56.59155 9.17898 29927 ft 448 kts 346°
2026-05-04 10:35 56.65235 9.15839 29909 ft 441 kts 346°
2026-05-04 10:35 56.71225 9.13798 29909 ft 435 kts 346°
2026-05-04 10:36 56.76984 9.11836 29911 ft 430 kts 345°
2026-05-04 10:36 56.79919 9.10833 29696 ft 432 kts 345°
2026-05-04 10:36 56.82866 9.09819 29142 ft 442 kts 345°
2026-05-04 10:37 56.85920 9.08776 28594 ft 450 kts 345°
2026-05-04 10:37 56.89026 9.07705 28069 ft 458 kts 345°
2026-05-04 10:37 56.92176 9.06621 27552 ft 461 kts 345°
2026-05-04 10:37 56.95129 9.05614 27038 ft 446 kts 345°
2026-05-04 10:39 57.12853 8.99463 24273 ft 435 kts 344°
2026-05-04 10:39 57.15825 8.98419 23829 ft 435 kts 344°
2026-05-04 10:39 57.18800 8.97388 23364 ft 435 kts 344°
2026-05-04 10:40 57.21651 8.96388 22864 ft 435 kts 344°
2026-05-04 10:40 57.24517 8.95379 22369 ft 434 kts 344°
2026-05-04 10:40 57.27480 8.94347 21879 ft 434 kts 344°
2026-05-04 10:40 57.30442 8.93310 21379 ft 433 kts 343°
2026-05-04 10:41 57.33224 8.92322 20927 ft 432 kts 344°
2026-05-04 10:41 57.36178 8.91292 20484 ft 431 kts 343°
2026-05-04 10:41 57.39121 8.90247 20019 ft 431 kts 343°
2026-05-04 10:41 57.42058 8.89201 19550 ft 430 kts 343°
2026-05-04 10:42 57.44963 8.88181 19094 ft 418 kts 343°
2026-05-04 10:42 57.47781 8.87188 18652 ft 406 kts 343°
2026-05-04 10:42 57.50394 8.86261 18247 ft 397 kts 343°
2026-05-04 10:42 57.53077 8.85300 17764 ft 389 kts 343°
2026-05-04 10:43 57.55707 8.84356 17304 ft 381 kts 343°
2026-05-04 10:44 57.72230 8.75300 14549 ft 336 kts 322°
2026-05-04 10:45 57.74207 8.73008 14202 ft 333 kts 322°
2026-05-04 10:45 57.76171 8.70729 13860 ft 331 kts 322°
2026-05-04 10:45 57.78099 8.68516 13506 ft 329 kts 323°
2026-05-04 10:45 57.80057 8.66333 13130 ft 326 kts 324°
2026-05-04 10:46 57.82011 8.64169 12755 ft 328 kts 324°
2026-05-04 10:46 57.83914 8.61777 12412 ft 331 kts 316°
2026-05-04 10:46 57.85504 8.59087 12090 ft 334 kts 311°
2026-05-04 10:46 57.87143 8.55966 11728 ft 338 kts 310°
2026-05-04 10:47 57.88716 8.52913 11391 ft 341 kts 310°
2026-05-04 10:47 57.90345 8.49738 11030 ft 339 kts 311°
2026-05-04 10:47 57.91989 8.46636 10686 ft 331 kts 312°
2026-05-04 10:47 57.93615 8.43632 10329 ft 325 kts 313°
2026-05-04 10:49 57.95540 8.18955 7663 ft 297 kts 272°
2026-05-04 10:49 57.95609 8.15080 7283 ft 296 kts 273°
2026-05-04 10:50 57.95719 8.11220 6910 ft 295 kts 274°
2026-05-04 10:51 58.03631 7.92714 4229 ft 282 kts 332°
2026-05-04 10:52 58.05329 7.91100 3719 ft 282 kts 332°
2026-05-04 10:52 58.06927 7.89546 3365 ft 277 kts 328°
2026-05-04 10:52 58.08684 7.88202 3174 ft 271 kts 350°
2026-05-04 10:54 58.14709 8.00767 1919 ft 191 kts 53°
2026-05-04 10:54 58.15674 8.02449 1334 ft 178 kts 22°
2026-05-04 10:56 58.20893 8.09145 58 ft 68 kts 36°
2026-05-04 10:56 58.21144 8.09498 56 ft 14 kts 47°
2026-05-04 10:56 58.21187 8.09574 56 ft 0 kts
2026-05-04 10:57 58.21198 8.09561 57 ft 3 kts 299°
2026-05-04 10:57 58.21138 8.09437 55 ft 16 kts 204°
2026-05-04 10:57 58.21023 8.09303 55 ft 24 kts 213°
2026-05-04 10:57 58.20865 8.09103 57 ft 30 kts 214°
2026-05-04 10:58 58.20693 8.08868 50 ft 32 kts 217°
2026-05-04 10:58 58.20575 8.08665 51 ft 22 kts 240°
2026-05-04 10:58 58.20558 8.08571 51 ft 0 kts 263°
2026-05-04 10:58 58.20557 8.08552 53 ft 5 kts 263°
2026-05-04 10:59 58.20548 8.08418 49 ft 16 kts 262°
2026-05-04 10:59 58.20492 8.08206 52 ft 20 kts 233°
2026-05-04 10:59 58.20401 8.07990 51 ft 21 kts 232°
2026-05-04 10:59 58.20320 8.07792 50 ft 12 kts 231°
2026-05-04 11:00 58.20276 8.07709 49 ft 9 kts 220°
2026-05-04 11:01 58.20271 8.07613 50 ft 0 kts 302°